Ashgabat, Turkmenistan

4:34 PM +05 on November 20, 2019 (GMT +0500)
Ashgabat

Weather History for UTAA - June, 2019

Change the Weather History Date:

Friday, June 7, 2019

  Actual Average Record
Temperature  
Mean Temperature 86 °F -  
Max Temperature 99 °F 97 °F - ()
Min Temperature 74 °F 70 °F - ()
Cooling Degree Days 22    
Growing Degree Days 36 (Base 50)    
Moisture  
Dew Point 47 °F    
Average Humidity 26    
Maximum Humidity 50    
Minimum Humidity 8    
Precipitation  
Precipitation 0.00 in 0.01 in - ()
Sea Level Pressure  
Sea Level Pressure 29.91 in    
Wind  
Wind Speed 4 mph ()    
Max Wind Speed 9 mph    
Max Gust Speed -    
Visibility 6.0 miles    
Events      
T = Trace of Precipitation, MM = Missing Value Source: Averaged Metar Reports

Daily Weather History Graph

Daily Weather History Graph

Search for Another Location

Airport or City:

Astronomy

Jun. 07, 2019 Rise Set
Actual Time 5:44 AM +05 8:26 PM +05
Civil Twilight 5:13 AM +05 8:58 PM +05
Nautical Twilight 4:34 AM +05 9:36 PM +05
Astronomical Twilight 3:50 AM +05 10:20 PM +05
Moon 9:32 AM +05 (6/7) No Moon Set
Length of Visible Light 15h 44m
Length of Day
14h 42m
Waxing Crescent, 18% of the Moon is Illuminated
Jun 7
Waxing Crescent
Jun 10
First Quarter
Jun 17
Full
Jun 25
Last Quarter
Jul 3
New

Hourly Weather History & Observations

Time (+05) Temp. Heat Index Dew Point Humidity Pressure Visibility Wind Dir Wind Speed Gust Speed Precip Events Conditions
12:00 AM 78.8 °F - 53.6 °F 42% 29.95 in 5.6 mi NW 2.3 mph - N/A   Scattered Clouds
1:00 AM 78.8 °F - 51.8 °F 39% 29.95 in 6.2 mi West 4.6 mph - N/A   Unknown
2:00 AM 80 °F - 51 °F 26% 29.93 in 6 mi West 4.5 mph - -   Clear
2:00 AM 77.0 °F - 51.8 °F 41% 29.92 in 5.6 mi WSW 4.6 mph - N/A   Unknown
3:00 AM 73.4 °F - 51.8 °F 47% 29.92 in 6.2 mi SW 4.6 mph - N/A   Unknown
4:00 AM 71.6 °F - 51.8 °F 50% 29.92 in 6.2 mi West 6.9 mph - N/A   Unknown
5:00 AM 79 °F - 39 °F 14% 29.92 in 6 mi West 4.5 mph - -  
5:00 AM 75.2 °F - 48.2 °F 38% 29.95 in 6.2 mi West 4.6 mph - N/A   Unknown
6:00 AM 71.6 °F - 48.2 °F 43% 29.95 in 6.2 mi NW 6.9 mph - N/A   Unknown
7:00 AM 73.4 °F - 50.0 °F 44% 29.95 in 5.6 mi WNW 4.6 mph - N/A   Unknown
8:00 AM 78 °F - 49 °F 25% 29.95 in 6 mi WNW 2.2 mph - -  
8:00 AM 80.6 °F - 48.2 °F 32% 29.95 in 6.2 mi Variable 2.3 mph - N/A   Unknown
9:00 AM 84.2 °F - 44.6 °F 25% 29.95 in 6.2 mi Variable 2.3 mph - N/A   Unknown
10:00 AM 86.0 °F - 46.4 °F 25% 29.95 in 6.2 mi North 4.6 mph - N/A   Unknown
11:00 AM 87 °F - 50 °F 18% 29.93 in 6 mi North 4.5 mph - -   Clear
11:00 AM 89.6 °F - 42.8 °F 20% 29.95 in 5.6 mi North 4.6 mph - N/A   Unknown
12:00 PM 91.4 °F - 42.8 °F 18% 29.92 in 6.2 mi WNW 4.6 mph - N/A   Unknown
1:00 PM 93.2 °F - 42.8 °F 17% 29.92 in 6.2 mi WNW 4.6 mph - N/A   Unknown
2:00 PM 96 °F - 42 °F 8% 29.89 in 6 mi ENE 6.7 mph - -   Scattered Clouds
2:00 PM 96.8 °F - 42.8 °F 16% 29.89 in 6.2 mi NE 4.6 mph - N/A   Partly Cloudy
3:00 PM 96.8 °F - 44.6 °F 17% 29.89 in 6.2 mi East 4.6 mph - N/A   Partly Cloudy
4:00 PM 98.6 °F - 44.6 °F 16% 29.89 in 5.6 mi Variable 2.3 mph - N/A   Partly Cloudy
5:00 PM 99 °F - 46 °F 9% 29.86 in 6 mi NW 6.7 mph - -   Scattered Clouds
5:00 PM 98.6 °F - 46.4 °F 17% 29.86 in 6.2 mi WNW 6.9 mph - N/A   Partly Cloudy
6:00 PM 98.6 °F - 46.4 °F 17% 29.86 in 6.2 mi WNW 6.9 mph - N/A   Partly Cloudy
7:00 PM 96.8 °F - 44.6 °F 17% 29.86 in 6.2 mi NNW 6.9 mph - N/A   Partly Cloudy
8:00 PM 95 °F - 42 °F 9% 29.85 in 6 mi NE 8.9 mph - -   Scattered Clouds
8:00 PM 93.2 °F - 46.4 °F 20% 29.89 in 6.2 mi NNE 6.9 mph - N/A   Partly Cloudy
9:00 PM 87.8 °F 85.7 °F 53.6 °F 31% 29.89 in 5.6 mi Variable 2.3 mph - N/A   Mostly Cloudy
10:00 PM 86.0 °F - 48.2 °F 27% 29.92 in 6.2 mi SW 4.6 mph - N/A   Scattered Clouds
11:00 PM 83 °F - 51 °F 23% 29.90 in 6 mi North 2.2 mph - -   Scattered Clouds
11:00 PM 80.6 °F - 51.8 °F 37% 29.92 in 5.6 mi Variable 2.3 mph - N/A   Partly Cloudy